Home > Time Zones > World Clock > Weather > Qatar > Doha > Past weeks

Flag for Qatar Weather past 2 weeks in Doha, Qatar

Now
90 °F

Sunny.


Feels Like: 98 °F
Forecast: 82 / 92 °F
Wind: 9 mph from East

Location: Doha International Airport

Current Time: Oct 21, 2014 at 5:25:18 PM

Latest Report: Oct 21, 2014 at 5:00 PM


Visibility: 10 mi

Pressure: 29.89 "Hg

Humidity: 59%

Dew point: 73 °F

Location of DohaLocation

Historic Weather in Doha — Graph

°F

Doha temperature yesterday

Maximum temperature yesterday: 104 °F (at 1:00 PM)
Minimum temperature yesterday: 82 °F (at 1:00 AM)
Average temperature yesterday: 92 °F

Past Weeks' High & Low Weather Summary

 TemperatureHumidityPressure
High104 °F (Oct 17, 1:00 PM)100% (Oct 13, 3:00 PM)29.98 "Hg (Oct 13, 3:00 PM)
Low75 °F (Oct 13, 3:00 PM)11% (Oct 18, 12:30 PM)29.77 "Hg (Oct 8, 2:00 PM)
Average90 °F56%29.89 "Hg
* Reported Oct 6 4:00 PM — Oct 21 4:30 PM, Doha, Weather by CustomWeather, © 2014

Note: Actual official high and low records may vary slightly from our data, if they occured in-between our weather recording intervals... More about our weather records

Advertising

Doha weather history for previous 24 hours

 ConditionsComfort  
Time TempWeatherWind HumidityBarometerVisibility
4:30 PM
Oct 21
91 °FSunny.10 mph52%29.89 "Hg10 mi
4:00 PM91 °FSunny.12 mph49%29.89 "Hg10 mi
3:30 PM91 °FSunny.12 mph52%29.89 "Hg10 mi
3:00 PM93 °FSunny.12 mph44%29.89 "Hg10 mi
2:30 PM93 °FSunny.12 mph47%29.89 "Hg10 mi
2:00 PM95 °FSunny.10 mph41%29.89 "Hg10 mi
1:30 PM95 °FSunny.10 mph39%29.89 "Hg10 mi
1:00 PM97 °FSunny.13 mph37%29.92 "Hg10 mi
12:00 PM97 °FPassing clouds.14 mph37%29.92 "HgN/A
11:00 AM97 °FSunny.12 mph37%29.95 "Hg10 mi
10:00 AM95 °FPassing clouds.13 mph36%29.95 "HgN/A
9:00 AM93 °FSunny.10 mph49%29.98 "Hg10 mi
8:00 AM91 °FPassing clouds.9 mph59%29.95 "HgN/A
7:00 AM88 °FPassing clouds.5 mph70%29.95 "HgN/A
6:30 AM86 °FPassing clouds.5 mph75%29.92 "HgN/A
6:00 AM82 °FPassing clouds.3 mph79%29.92 "HgN/A
5:30 AM82 °FPassing clouds.3 mph74%29.92 "HgN/A
5:00 AM82 °FClear.2 mph74%29.92 "Hg10 mi
4:30 AM82 °FClear.1 mph74%29.89 "Hg10 mi
4:00 AM84 °FClear.2 mph70%29.89 "Hg10 mi
3:30 AM84 °FClear.2 mph70%29.89 "Hg10 mi
3:00 AM84 °FPassing clouds.3 mph70%29.89 "HgN/A
2:30 AM86 °FPassing clouds.3 mph66%29.89 "HgN/A
2:00 AM86 °FClear.5 mph66%29.89 "Hg10 mi
1:00 AM86 °FPassing clouds.3 mph70%29.89 "HgN/A
12:00 AM86 °FClear.6 mph70%29.89 "Hg10 mi
11:30 PM
Oct 20
88 °FClear.7 mph66%29.89 "Hg10 mi
11:00 PM86 °FClear.7 mph75%29.89 "Hg10 mi
10:30 PM88 °FClear.7 mph70%29.89 "Hg10 mi
10:00 PM88 °FClear.7 mph70%29.92 "Hg10 mi
9:30 PM88 °FClear.7 mph70%29.92 "Hg10 mi
9:00 PM88 °FClear.8 mph70%29.92 "Hg10 mi
8:00 PM88 °FClear.8 mph70%29.89 "Hg10 mi
7:30 PM88 °FPassing clouds.7 mph70%29.89 "HgN/A
7:00 PM90 °FClear.8 mph67%29.89 "Hg10 mi
6:00 PM91 °FClear.5 mph52%29.86 "Hg10 mi
5:00 PM95 °FPassing clouds.6 mph41%29.86 "HgN/A
Weather by CustomWeather, © 2014

See weather overviewHow to use our weather pages